Location: Baix
(44.7118°N, 4.7648°E)
Time: 06:01:17
(UTC+00:00)

Vanguard 2 - Visible Passes

Search period start: 27 November 2020 00:00
Search period end: 07 December 2020 00:00
Orbit: 554 x 2937 km, 32.9° (Epoch: 26 November)

Date Brightness Start Highest point End Pass type
(mag) Time Alt. Az. Time Alt. Az. Time Alt. Az.
04 Dec 11.5 05:31:23 10° S 05:35:23 13° SSE 05:38:48 10° SE visible
05 Dec 11.2 05:46:33 10° SSW 05:53:09 18° SSE 05:58:12 10° ESE visible
06 Dec 10.9 06:02:48 10° SSW 06:10:54 22° SSE 06:16:44 10° ESE visible
